Location: Hochstatterhof
(48.7256°N, 10.3487°E)
Time: 01:38:41
(UTC+00:00)

CZ-2D R/B - Pass Details

Date: 26 September 2023
Orbit: 790 x 844 km, 98.8° (Epoch: 04 December)

Event Time Altitude Azimuth Distance (km) Brightness Sun altitude
Rises 03:18:56 0° 1° (N) 3,410 5.7 -18.8°
Reaches altitude 10° 03:22:37 10° 336° (NNW) 2,462 4.6 -18.2°
Maximum altitude 03:25:02 13° 310° (NW) 2,233 4.1 -17.9°
Enters shadow 03:25:33 13° 304° (WNW) 2,241 4.1 -17.8°
